Showing default

COSMOS 2475 (GLONASS), 37869

Orbit data source: Space-Track

COSMOS 2475 (GLONASS), 37869 is a Commonwealth of Independent States-origin payload satellite in MEO that was launched on Fri, 04 Nov 2011 UTC via a PROTON-M/BRIZ-M launch vehicle from the Tyuratam Missile And Space Complex (TTMTR). Payload-class satellites include a variety of spacecraft equipped with specific instruments for various scientific and technological missions. These include communications satellites like Starlink; space stations such as the ISS; scientific satellites like the Hubble; Earth observation satellites from companies like Planet Labs, Umbra, and HawkEye 360; GPS; miniature CubeSats for education and research; and military/defense satellites.

Loading next visibility...
Identifier
37869, 2011-064C
Orbit
MEO
Country
Flag of CISCIS
Related business
Manufacturer
Resehetnev ISS
Mission
Operational Defense Navigation
Bus & Motor
URAGAN, Unknown motor
Mass
1,450 kg wet, ~1,200 kg dry
Launch date (UTC)
2011-11-04 (14 years ago)
Launch vehicle
PROTON-M/BRIZ-M
Launch site
Tyuratam Missile And Space Complex (TTMTR)
Object type
Payload
Rocket body
Debris
Shape & HBR
Cyl + 1 Ant + 2 Pan, 3.9 m
Radar Cross Section
8.467 m², Large (>1 m²)

Expand to show TLE details & history
Last TLE update: 23 hours ago

TLE from 23 hours ago
0 COSMOS 2475 (GLONASS)
1 37869U 11064C   25258.04350359  .00000035  00000-0  00000-0 0  9994
2 37869  65.1260  82.2669 0023781 247.4752 292.7390  2.13101695107907
Epoch: 2025-09-15T01:02Z
TLE epoch observation values (Epoch: 2025-09-15T01:02:38.71Z)
Latitude
0.0256°
Longitude
-107.66415°
Altitude
19,107.221 km
Speed
3.957 km/s
True Right ascension
17h 29m 00s
True Declination
0° 01' 32"
Sunlit
Object was in daylight at epoch
Visualization orbit readout
Latitude
Unknown
Longitude
Unknown
Altitude
Unknown
Speed
Unknown
Apparent Right ascension
Unknown
Apparent Declination
Unknown
Sunlit
N/A
Visualization observer readout
Local Sidereal Time
16:40:30
Azimuth
Unknown
Elevation
Unknown
Doppler factor
Unknown
Orbital elements
Apogee altitude
19,190.182 km
Perigee altitude
19,068.863 km
Semi-major axis
25,507.659 km
Eccentricity
0.00238
Inclination
65.126°
RAAN
82.2669°
Arg. of periapsis
247.4752°
True anomaly
292.48738°
Mean anomaly
292.739°
Eccentric anomaly
292.61322°
Mean motion
0.53277 °/min
Orbital period
675.72 mins
BSTAR
0
Loading maneuver chart data...
Computing Atmospheric mass density...
Loading historical data...
Loading historical data...
Loading historical data...
Loading historical data...
Loading historical data...
Loading historical data...
Loading historical data...

Documentation

Showing up to 5 results
|